EW6283 Weather Reports


time (UTC)temp
F
wind
direction
speed
knots
gust
knots
rain 1hr
in
rain 24hr
in
rain mn
in
humidity
%
barometer
mb
20260505152643 75 204 7.0 13.9 0.00 0.01 0.01 44 1004.9
20260505152027 75 124 3.5 12.2 0.00 0.01 0.01 44 1005.0
20260505151643 75 202 4.3 17.4 0.00 0.01 0.01 44 1005.1
20260505151142 74 170 7.0 17.4 0.00 0.01 0.01 45 1005.2
20260505150642 74 257 0.9 19.1 0.00 0.01 0.01 45 1005.3
20260505150145 74 218 9.6 19.1 0.00 0.01 0.01 45 1005.3
20260505140528 71 212 4.3 16.5 0.00 0.01 0.01 48 1005.7
20260505140144 70 218 10.4 20.9 0.00 0.01 0.01 48 1005.8
20260505124530 65 181 8.7 16.5 0.00 0.01 0.01 56 1006.2
20260505124028 65 237 5.2 16.5 0.00 0.01 0.01 56 1006.1
20260505123527 64 198 6.1 12.2 0.00 0.01 0.01 57 1006.2
20260505123028 64 181 4.3 12.2 0.00 0.01 0.01 57 1006.2
20260505122758 63 171 7.0 10.4 0.00 0.01 0.01 59 1006.2
20260505122027 62 102 3.5 8.7 0.00 0.01 0.01 58 1006.3
20260505121529 62 166 5.2 9.6 0.00 0.01 0.01 59 1006.3
20260505121027 62 180 1.7 9.6 0.00 0.01 0.01 60 1006.3
20260505120529 61 222 1.7 11.3 0.00 0.01 0.01 60 1006.3
20260505120028 61 216 2.6 11.3 0.00 0.01 0.01 60 1006.4
20260505115529 60 262 1.7 7.0 0.00 0.01 0.01 60 1006.2
20260505115027 60 180 0.9 7.8 0.00 0.01 0.01 62 1006.1
20260505114529 59 153 1.7 9.6 0.00 0.01 0.01 62 1006.2
20260505114142 59 187 4.3 7.0 0.00 0.01 0.01 64 1006.3
20260505113643 58 156 0.9 7.0 0.00 0.01 0.01 65 1006.4
20260505113143 58 120 1.7 7.8 0.00 0.01 0.01 65 1006.4
20260505112527 58 154 5.2 7.8 0.00 0.01 0.01 64 1006.3
20260505112143 58 200 2.6 5.2 0.00 0.01 0.01 64 1006.4
20260505111529 57 137 1.7 5.2 0.00 0.01 0.01 64 1006.4
20260505111027 57 149 1.7 7.0 0.00 0.01 0.01 65 1006.5
20260505110528 57 146 2.6 7.0 0.00 0.01 0.01 66 1006.5
20260505110145 57 167 3.5 6.1 0.00 0.01 0.01 66 1006.4
20260505102027 57 195 0.0 3.5 0.00 0.00 0.00 61 1006.4
20260505101529 57 227 1.7 3.5 0.00 0.00 0.00 62 1006.1
20260505101028 56 254 0.0 2.6 0.00 0.00 0.00 62 1006.0
20260505100527 57 260 0.9 7.8 0.00 0.00 0.00 61 1006.0
20260505100030 57 262 0.9 7.8 0.00 0.00 0.00 60 1005.8
20260505095644 57 176 1.7 5.2 0.00 0.00 0.00 60 1005.8
20260505095027 57 166 3.5 13.9 0.00 0.00 0.00 60 1005.6
20260505094529 58 34 0.9 13.9 0.00 0.00 0.00 59 1005.6
20260505094143 57 143 7.0 13.9 0.00 0.00 0.00 59 1005.5
20260505093527 57 206 6.1 16.5 0.00 0.00 0.00 59 1005.4
20260505093028 57 135 13.0 13.0 0.00 0.00 0.00 59 1005.6
20260505092758 57 197 2.6 15.6 0.00 0.00 0.00 59 1005.5
20260505092027 58 158 7.8 11.3 0.00 0.00 0.00 59 1005.4
20260505091529 58 145 7.8 13.0 0.00 0.00 0.00 59 1005.6
20260505091027 58 125 6.1 16.5 0.00 0.00 0.00 59 1005.5
20260505090528 58 160 9.6 16.5 0.00 0.00 0.00 58 1005.5
20260505090029 58 133 3.5 13.9 0.00 0.00 0.00 58 1005.5
20260505085528 58 273 2.6 12.2 0.00 0.00 0.00 58 1005.6
20260505085027 58 214 2.6 10.4 0.00 0.00 0.00 58 1005.6
20260505084528 58 143 7.0 11.3 0.00 0.00 0.00 58 1005.6
20260505084027 58 132 9.6 11.3 0.00 0.00 0.00 58 1005.7
20260505083758 58 198 1.7 8.7 0.00 0.00 0.00 58 1005.8
20260505083146 58 204 7.0 8.7 0.00 0.00 0.00 58 1005.9
20260505082643 58 191 5.2 8.7 0.00 0.00 0.00 58 1006.0
20260505082142 58 189 6.1 9.6 0.00 0.00 0.00 58 1006.0
20260505081532 58 184 6.1 12.2 0.00 0.00 0.00 57 1006.0
20260505081029 58 104 1.7 12.2 0.00 0.00 0.00 57 1006.1
20260505080643 58 216 4.3 11.3 0.00 0.00 0.00 58 1006.0
20260505080028 58 204 2.6 8.7 0.00 0.00 0.00 58 1006.0
20260505075643 58 139 3.5 10.4 0.00 0.00 0.00 58 1005.9
20260505075143 58 206 3.5 7.8 0.00 0.00 0.00 57 1006.0
20260505074529 58 259 0.9 8.7 0.00 0.00 0.00 57 1006.0
20260505074027 58 188 5.2 8.7 0.00 0.00 0.00 57 1006.0
20260505073758 58 193 3.5 8.7 0.00 0.00 0.00 57 1006.0
20260505073029 58 218 2.6 8.7 0.00 0.00 0.00 57 1005.9
20260505072643 58 162 5.2 9.6 0.00 0.00 0.00 57 1005.9
20260505072143 58 237 3.5 8.7 0.00 0.00 0.00 57 1005.8
20260505071529 58 159 8.7 9.6 0.00 0.00 0.00 57 1006.0
20260505071143 58 213 6.1 9.6 0.00 0.00 0.00 57 1006.0
20260505070528 57 193 7.8 8.7 0.00 0.00 0.00 58 1006.0
20260505070143 57 212 2.6 8.7 0.00 0.00 0.00 59 1006.1
20260505065643 57 199 6.1 7.8 0.00 0.00 0.00 59 1006.1
20260505065027 57 202 3.5 7.8 0.00 0.00 0.00 58 1006.2
20260505064529 57 179 2.6 12.2 0.00 0.00 0.00 58 1006.2
20260505064155 57 201 4.3 12.2 0.00 0.00 0.00 58 1006.3
20260505063528 57 147 4.3 8.7 0.00 0.00 0.00 58 1006.3
20260505063029 58 190 6.1 9.6 0.00 0.00 0.00 57 1006.4
20260505062642 58 120 3.5 9.6 0.00 0.00 0.00 57 1006.5
20260505062027 58 194 3.5 10.4 0.00 0.00 0.00 57 1006.5
20260505061529 58 140 6.1 10.4 0.00 0.00 0.00 57 1006.5
20260505061143 58 232 5.2 10.4 0.00 0.00 0.00 57 1006.5
20260505060527 58 218 2.6 9.6 0.00 0.00 0.00 57 1006.5
20260505060143 58 214 4.3 8.7 0.00 0.00 0.00 57 1006.5
20260505055528 58 218 0.9 12.2 0.00 0.00 0.00 57 1006.6
20260505055027 58 149 7.8 12.2 0.00 0.00 0.00 57 1006.7
20260505054529 58 173 5.2 12.2 0.00 0.00 0.00 56 1006.7
20260505054028 58 251 2.6 12.2 0.00 0.00 0.00 56 1006.6
20260505053528 58 234 5.2 13.0 0.00 0.00 0.00 56 1006.6
20260505053029 58 133 7.8 14.8 0.00 0.00 0.00 56 1006.7
20260505052528 58 178 6.1 14.8 0.00 0.00 0.00 56 1006.6
20260505052027 58 195 4.3 13.9 0.00 0.00 0.00 56 1006.6
20260505051528 58 184 7.8 11.3 0.00 0.00 0.00 56 1006.6
20260505051143 58 198 6.1 10.4 0.00 0.00 0.00 56 1006.7
20260505050643 59 280 1.7 13.9 0.00 0.00 0.00 56 1006.6
20260505041530 58 114 3.5 11.3 0.00 0.00 0.00 56 1006.6
20260505041144 58 160 5.2 11.3 0.00 0.00 0.00 56 1006.6
20260505040528 58 223 5.2 15.6 0.00 0.00 0.00 56 1006.6
20260505040029 58 193 4.3 15.6 0.00 0.00 0.00 56 1006.6
20260505035642 58 180 8.7 14.8 0.00 0.00 0.00 56 1006.6
20260505035143 58 122 2.6 8.7 0.00 0.00 0.00 56 1006.6
20260505034528 58 206 1.7 14.8 0.00 0.00 0.00 56 1006.5
20260505034028 58 210 5.2 14.8 0.00 0.00 0.00 55 1006.6
20260505033528 59 108 3.5 13.0 0.00 0.00 0.00 55 1006.5
20260505033144 58 197 7.0 13.0 0.00 0.00 0.00 55 1006.5
20260505032528 58 187 3.5 12.2 0.00 0.00 0.00 55 1006.4
20260505032027 59 193 3.5 13.9 0.00 0.00 0.00 54 1006.4
20260505031644 59 195 4.3 8.7 0.00 0.00 0.00 53 1006.5
20260505031028 59 201 8.7 13.0 0.00 0.00 0.00 53 1006.4
20260505030643 59 233 1.7 9.6 0.00 0.00 0.00 52 1006.4
20260505030028 59 175 3.5 7.8 0.00 0.00 0.00 52 1006.4
20260505025528 59 206 3.5 8.7 0.00 0.00 0.00 51 1006.4
20260505025027 59 219 5.2 9.6 0.00 0.00 0.00 51 1006.3
20260505024644 59 197 9.6 9.6 0.00 0.00 0.00 51 1006.4
20260505024027 60 210 3.5 10.4 0.00 0.00 0.00 50 1006.3
20260505023527 60 177 1.7 11.3 0.00 0.00 0.00 50 1006.3
20260505023029 60 153 3.5 11.3 0.00 0.00 0.00 49 1006.4
20260505022528 60 193 7.8 7.8 0.00 0.00 0.00 49 1006.4
20260505022142 60 262 2.6 7.8 0.00 0.00 0.00 48 1006.4
20260505021529 60 204 3.5 7.8 0.00 0.00 0.00 48 1006.4
20260505021027 60 199 0.9 7.8 0.00 0.00 0.00 49 1006.4
20260505020643 60 204 1.7 7.8 0.00 0.00 0.00 49 1006.4
20260505020027 59 222 4.3 4.3 0.00 0.00 0.00 50 1006.4
20260505015642 59 214 2.6 7.0 0.00 0.00 0.00 50 1006.2
20260505015144 59 216 3.5 7.0 0.00 0.00 0.00 50 1006.2
20260505014644 59 222 2.6 5.2 0.00 0.00 0.00 51 1006.2
20260505014143 59 218 2.6 6.1 0.00 0.00 0.00 51 1006.2
20260505013527 59 217 2.6 6.1 0.00 0.00 0.00 50 1006.2
20260505013028 59 238 1.7 6.1 0.00 0.00 0.00 50 1006.1
20260505012758 59 224 5.2 6.1 0.00 0.00 0.00 50 1006.0
20260505012142 59 224 3.5 7.8 0.00 0.00 0.00 49 1006.0
20260505011529 60 210 2.6 7.8 0.00 0.00 0.00 49 1006.0
20260505011028 60 215 3.5 6.1 0.00 0.00 0.00 48 1005.9
20260505010643 60 210 3.5 6.1 0.00 0.00 0.00 48 1005.9
20260505010028 60 216 3.5 6.1 0.00 0.00 0.00 47 1006.0
20260505005527 61 228 3.5 5.2 0.00 0.00 0.00 46 1005.9
20260505005027 62 220 1.7 4.3 0.00 0.00 0.00 45 1005.9
20260505004644 62 235 0.9 6.1 0.00 0.00 0.00 45 1005.9
20260505004143 62 220 2.6 6.1 0.00 0.00 0.00 44 1005.8
20260505003642 62 249 1.7 3.5 0.00 0.00 0.00 44 1005.8
20260505003028 62 249 1.7 4.3 0.00 0.00 0.00 44 1005.7
20260505002528 62 254 1.7 3.5 0.00 0.00 0.00 44 1005.7
20260505002027 63 239 1.7 4.3 0.00 0.00 0.00 43 1005.5
20260505001529 63 216 1.7 4.3 0.00 0.00 0.00 42 1005.4
20260505001028 64 216 2.6 4.3 0.00 0.00 0.00 42 1005.4
20260505000527 64 210 1.7 5.2 0.00 0.00 0.00 41 1005.3
20260505000028 65 222 1.7 5.2 0.00 0.00 0.00 40 1005.4
20260504235757 65 218 2.6 4.3 0.00 0.00 0.00 39 1005.4
20260504235028 65 172 1.7 7.0 0.00 0.00 0.00 39 1005.3
20260504234529 66 196 4.3 8.7 0.00 0.00 0.00 38 1005.3
20260504234028 66 186 7.8 8.7 0.00 0.00 0.00 38 1005.1
20260504233528 66 167 3.5 8.7 0.00 0.00 0.00 38 1005.1
20260504233259 66 206 4.3 13.9 0.00 0.00 0.00 37 1005.0
20260504232529 66 154 3.5 13.9 0.00 0.00 0.00 37 1005.0
20260504232027 66 218 7.0 13.9 0.00 0.00 0.00 37 1004.9
20260504231644 67 212 6.1 8.7 0.00 0.00 0.00 37 1004.9
20260504231027 67 232 3.5 7.8 0.00 0.00 0.00 37 1004.8
20260504230528 67 209 3.5 10.4 0.00 0.00 0.00 37 1004.7
20260504230029 67 211 7.0 8.7 0.00 0.00 0.00 36 1004.6
20260504225528 67 191 3.5 10.4 0.00 0.00 0.00 36 1004.5
20260504225143 68 199 2.6 10.4 0.00 0.00 0.00 36 1004.5
20260504224528 68 189 6.1 12.2 0.00 0.00 0.00 35 1004.5
20260504224027 68 204 4.3 14.8 0.00 0.00 0.00 36 1004.4
20260504223527 68 210 7.0 15.6 0.00 0.00 0.00 35 1004.4
20260504223030 68 193 7.8 15.6 0.00 0.00 0.00 36 1004.5
20260504222643 68 189 9.6 13.0 0.00 0.00 0.00 36 1004.4
20260504222027 68 229 3.5 11.3 0.00 0.00 0.00 37 1004.5
20260504221758 68 158 6.1 12.2 0.00 0.00 0.00 36 1004.5
20260504221027 68 213 4.3 12.2 0.00 0.00 0.00 37 1004.5
20260504220528 68 218 4.3 12.2 0.00 0.00 0.00 36 1004.5
20260504220029 68 189 10.4 12.2 0.00 0.00 0.00 35 1004.5
20260504215757 68 196 7.0 13.9 0.00 0.00 0.00 36 1004.6
20260504215028 68 207 6.1 13.9 0.00 0.00 0.00 35 1004.6
20260504214643 68 201 4.3 13.9 0.00 0.00 0.00 36 1004.6
20260504214142 69 176 7.8 13.9 0.00 0.00 0.00 36 1004.6
20260504213642 69 206 13.0 13.9 0.00 0.00 0.00 35 1004.6
20260504213028 69 185 7.8 9.6 0.00 0.00 0.00 36 1004.6
20260504212643 69 195 4.3 8.7 0.00 0.00 0.00 36 1004.6
20260504212257 69 175 0.9 14.8 0.00 0.00 0.00 36 1004.6
20260504211644 68 200 6.1 14.8 0.00 0.00 0.00 37 1004.6
20260504211027 68 189 6.1 18.2 0.00 0.00 0.00 37 1004.8
20260504210642 68 224 4.3 18.2 0.00 0.00 0.00 37 1004.9
20260504210143 68 188 6.1 15.6 0.00 0.00 0.00 36 1004.9
20260504205528 68 212 7.0 17.4 0.00 0.00 0.00 37 1004.9
20260504205027 67 193 9.6 17.4 0.00 0.00 0.00 36 1004.9
20260504204529 68 235 14.8 15.6 0.00 0.00 0.00 36 1005.0
20260504204142 68 207 5.2 16.5 0.00 0.00 0.00 37 1005.0
20260504203527 67 222 10.4 16.5 0.00 0.00 0.00 36 1005.1
20260504203144 68 175 10.4 16.5 0.00 0.00 0.00 36 1005.0
20260504202643 67 225 8.7 16.5 0.00 0.00 0.00 37 1005.2
20260504202142 67 214 7.0 14.8 0.00 0.00 0.00 37 1005.2
20260504201645 67 216 12.2 19.1 0.00 0.00 0.00 37 1005.2
20260504201027 66 193 9.6 19.1 0.00 0.00 0.00 37 1005.2
20260504200528 67 206 4.3 18.2 0.00 0.00 0.00 36 1005.2
20260504200028 67 256 10.4 22.6 0.00 0.00 0.00 36 1005.2
20260504195643 67 225 11.3 22.6 0.00 0.00 0.00 36 1005.3
20260504195142 67 216 7.8 15.6 0.00 0.00 0.00 37 1005.2
20260504194643 67 168 1.7 13.9 0.00 0.00 0.00 36 1005.3
20260504194142 68 191 7.8 15.6 0.00 0.00 0.00 37 1005.3
20260504193642 67 217 8.7 15.6 0.00 0.00 0.00 37 1005.3
20260504193029 67 227 6.1 16.5 0.00 0.00 0.00 37 1005.3
20260504192528 66 235 7.8 17.4 0.00 0.00 0.00 37 1005.4
20260504192028 66 210 7.8 17.4 0.00 0.00 0.00 37 1005.5
20260504191529 66 154 7.0 18.2 0.00 0.00 0.00 38 1005.5
20260504191027 66 201 8.7 18.2 0.00 0.00 0.00 39 1005.6
20260504190527 65 218 6.1 13.9 0.00 0.00 0.00 38 1005.6
20260504190144 65 208 9.6 13.9 0.00 0.00 0.00 38 1005.7
20260504185528 66 82 4.3 20.0 0.00 0.00 0.00 38 1005.7
20260504185258 66 239 2.6 20.0 0.00 0.00 0.00 38 1005.7
20260504184529 66 213 6.1 19.1 0.00 0.00 0.00 37 1005.6
20260504184142 66 245 12.2 19.1 0.00 0.00 0.00 37 1005.7
20260504183527 66 231 20.0 19.1 0.00 0.00 0.00 37 1005.6
20260504183144 67 201 13.9 20.9 0.00 0.00 0.00 37 1005.9
20260504182527 67 251 3.5 16.5 0.00 0.00 0.00 37 1005.6
20260504182027 67 176 11.3 17.4 0.00 0.00 0.00 37 1005.7
20260504181529 66 199 6.1 15.6 0.00 0.00 0.00 40 1005.8
20260504181142 65 175 7.8 15.6 0.00 0.00 0.00 40 1005.8
20260504180527 65 236 5.2 14.8 0.00 0.00 0.00 40 1005.9
20260504180143 64 249 6.1 21.7 0.00 0.00 0.00 39 1006.0
20260504175527 64 203 10.4 23.5 0.00 0.00 0.00 38 1006.0
20260504175142 64 202 14.8 23.5 0.00 0.00 0.00 39 1006.2
20260504174529 65 220 6.1 18.2 0.00 0.00 0.00 38 1006.1
20260504174027 64 193 14.8 19.1 0.00 0.00 0.00 39 1006.1
20260504173643 64 336 14.8 19.1 0.00 0.00 0.00 38 1006.0
20260504173143 64 250 4.3 17.4 0.00 0.00 0.00 41 1006.4
20260504172642 64 220 12.2 15.6 0.00 0.00 0.00 40 1006.5
20260504172027 63 232 10.4 16.5 0.00 0.00 0.00 43 1006.7
20260504171528 63 233 11.3 13.0 0.00 0.00 0.00 42 1006.6
20260504171143 62 199 6.1 13.0 0.00 0.00 0.00 40 1006.7
20260504170528 63 213 7.8 14.8 0.00 0.00 0.00 41 1006.7